Tracking 20040 objects as of 18-Nov-2019
Live streaming from Space Station
objects crossing your sky now

COSMOS 940

Track COSMOS 940 now!
10-day predictions
COSMOS 940 is classified as:


NORAD ID: 10286
Int'l Code: 1977-079B
Perigee: 1,400.1 km
Apogee: 1,469.6 km
Inclination: 74.0 °
Period: 114.4 minutes
Semi major axis: 7805 km
RCS: 0.703 m2 (medium)
Launch date: August 24, 1977
Source: Commonwealth of Independent States (former USSR) (CIS)
Launch site: PLESETSK MISSILE AND SPACE COMPLEX (PKMTR)
aabbcc
Your satellite tracking list
Your tracking list is empty




NASA's NSSDC Master Catalog

Two Line Element Set (TLE):
1 10286U 77079B   19321.93996405 -.00000022 +00000-0 -32608-4 0  9997
2 10286 074.0228 296.0315 0044513 287.9151 132.5844 12.58856403909904
Source of the keplerian elements: AFSPC